| time (UTC) | temp F | wind direction | speed MPH | gust MPH | rain 1hr in | rain 24hr in | rain mn in | humidity % | barometer mb |
| 20260510020034 | 44 | 44 | 0.0 | 2.0 | 0.00 | 0.45 | 0.45 | 97 | 1011.7 |
| 20260510014532 | 44 | 0 | 0.0 | 1.0 | 0.00 | 0.45 | 0.45 | 96 | 1011.7 |
| 20260510013032 | 44 | 0 | 0.0 | 3.0 | 0.00 | 0.45 | 0.45 | 97 | 1011.8 |
| 20260510011532 | 44 | 192 | 0.0 | 2.0 | 0.00 | 0.45 | 0.45 | 97 | 1011.9 |
| 20260510010032 | 44 | 0 | 0.0 | 1.0 | 0.00 | 0.45 | 0.45 | 96 | 1012.0 |
| 20260510004531 | 44 | 250 | 0.0 | 1.0 | 0.00 | 0.45 | 0.45 | 96 | 1011.9 |
| 20260510003040 | 44 | 0 | 0.0 | 1.0 | 0.00 | 0.45 | 0.45 | 95 | 1011.6 |
| 20260510001533 | 45 | 182 | 0.0 | 4.0 | 0.00 | 0.45 | 0.45 | 95 | 1011.4 |
| 20260510000031 | 45 | 113 | 0.0 | 4.0 | 0.00 | 0.45 | 0.45 | 95 | 1011.1 |
| 20260509234539 | 45 | 64 | 0.0 | 2.0 | 0.00 | 0.45 | 0.45 | 96 | 1010.9 |
| 20260509233036 | 45 | 0 | 0.0 | 3.0 | 0.00 | 0.45 | 0.45 | 96 | 1011.0 |
| 20260509231540 | 45 | 263 | 0.0 | 1.0 | 0.00 | 0.45 | 0.45 | 95 | 1010.9 |
| 20260509230034 | 45 | 0 | 0.0 | 1.0 | 0.00 | 0.45 | 0.45 | 96 | 1011.0 |
| 20260509224534 | 45 | 323 | 0.0 | 1.0 | 0.00 | 0.45 | 0.45 | 96 | 1011.0 |
| 20260509223031 | 45 | 298 | 0.0 | 2.0 | 0.01 | 0.45 | 0.45 | 96 | 1011.0 |
| 20260509221535 | 45 | 123 | 0.0 | 3.0 | 0.01 | 0.45 | 0.45 | 96 | 1011.0 |
| 20260509220035 | 44 | 0 | 0.0 | 1.0 | 0.01 | 0.45 | 0.45 | 96 | 1011.2 |
| 20260509214534 | 45 | 0 | 0.0 | 2.0 | 0.02 | 0.45 | 0.45 | 96 | 1011.2 |
| 20260509213032 | 44 | 175 | 0.0 | 2.0 | 0.03 | 0.44 | 0.44 | 95 | 1011.3 |
| 20260509211531 | 45 | 302 | 0.0 | 2.0 | 0.05 | 0.44 | 0.44 | 95 | 1011.4 |
| 20260509210033 | 45 | 94 | 0.0 | 2.0 | 0.07 | 0.44 | 0.44 | 94 | 1011.3 |
| 20260509204531 | 45 | 0 | 1.0 | 4.0 | 0.07 | 0.42 | 0.42 | 94 | 1011.4 |
| 20260509203039 | 45 | 0 | 0.0 | 3.0 | 0.08 | 0.41 | 0.41 | 94 | 1011.4 |
| 20260509201530 | 45 | 178 | 1.0 | 5.0 | 0.08 | 0.39 | 0.39 | 94 | 1011.7 |
| 20260509200030 | 45 | 0 | 0.0 | 2.0 | 0.07 | 0.37 | 0.37 | 94 | 1011.8 |
| 20260509194532 | 45 | 0 | 0.0 | 1.0 | 0.06 | 0.35 | 0.35 | 94 | 1011.8 |
| 20260509193034 | 45 | 0 | 0.0 | 1.0 | 0.05 | 0.33 | 0.33 | 95 | 1011.9 |
| 20260509191538 | 45 | 0 | 0.0 | 1.0 | 0.04 | 0.31 | 0.31 | 94 | 1012.0 |
| 20260509190030 | 45 | 0 | 0.0 | 1.0 | 0.04 | 0.30 | 0.30 | 94 | 1012.1 |
| 20260509184533 | 45 | 326 | 0.0 | 2.0 | 0.06 | 0.29 | 0.29 | 93 | 1012.1 |
| 20260509183033 | 45 | 0 | 1.0 | 4.0 | 0.08 | 0.28 | 0.28 | 94 | 1012.3 |
| 20260509181548 | 45 | 0 | 0.0 | 1.0 | 0.09 | 0.27 | 0.27 | 94 | 1012.3 |
| 20260509180032 | 45 | 36 | 0.0 | 1.0 | 0.09 | 0.25 | 0.25 | 93 | 1012.5 |
| 20260509174532 | 45 | 0 | 0.0 | 3.0 | 0.08 | 0.23 | 0.23 | 93 | 1012.7 |
| 20260509173034 | 45 | 196 | 0.0 | 3.0 | 0.05 | 0.19 | 0.19 | 92 | 1012.7 |
| 20260509171537 | 45 | 144 | 1.0 | 4.0 | 0.05 | 0.18 | 0.18 | 92 | 1012.8 |
| 20260509170042 | 45 | 0 | 0.0 | 1.0 | 0.05 | 0.16 | 0.16 | 92 | 1012.9 |
| 20260509164537 | 44 | 144 | 1.0 | 2.0 | 0.06 | 0.15 | 0.15 | 92 | 1012.9 |
| 20260509163034 | 44 | 84 | 1.0 | 4.0 | 0.07 | 0.14 | 0.14 | 92 | 1013.1 |
| 20260509161534 | 44 | 236 | 0.0 | 2.0 | 0.07 | 0.13 | 0.13 | 93 | 1013.1 |
| 20260509160036 | 44 | 0 | 1.0 | 2.0 | 0.07 | 0.11 | 0.11 | 92 | 1013.4 |
| 20260509154542 | 44 | 0 | 0.0 | 1.0 | 0.06 | 0.09 | 0.09 | 93 | 1013.5 |
| 20260509153039 | 44 | 0 | 0.0 | 6.0 | 0.05 | 0.07 | 0.07 | 91 | 1013.7 |
| 20260509151534 | 45 | 0 | 0.0 | 3.0 | 0.05 | 0.06 | 0.06 | 90 | 1013.7 |
| 20260509150031 | 45 | 76 | 0.0 | 1.0 | 0.04 | 0.04 | 0.04 | 89 | 1013.6 |
| 20260509144534 | 46 | 0 | 0.0 | 1.0 | 0.03 | 0.03 | 0.03 | 89 | 1013.6 |
| 20260509143036 | 46 | 0 | 0.0 | 0.0 | 0.02 | 0.02 | 0.02 | 89 | 1013.5 |
| 20260509141532 | 46 | 0 | 0.0 | 1.0 | 0.00 | 0.00 | 0.00 | 85 | 1013.6 |
| 20260509140039 | 47 | 0 | 0.0 | 4.0 | 0.00 | 0.00 | 0.00 | 78 | 1013.4 |
| 20260509134539 | 48 | 165 | 1.0 | 3.0 | 0.00 | 0.00 | 0.00 | 71 | 1013.4 |
| 20260509133034 | 49 | 0 | 0.0 | 2.0 | 0.00 | 0.00 | 0.00 | 64 | 1013.2 |
| 20260509131540 | 50 | 214 | 1.0 | 3.0 | 0.00 | 0.00 | 0.00 | 61 | 1013.3 |
| 20260509130033 | 48 | 0 | 0.0 | 5.0 | 0.00 | 0.00 | 0.00 | 61 | 1013.3 |
| 20260509124534 | 48 | 0 | 0.0 | 2.0 | 0.00 | 0.00 | 0.00 | 59 | 1013.5 |
| 20260509123033 | 48 | 0 | 0.0 | 1.0 | 0.00 | 0.00 | 0.00 | 66 | 1013.7 |
| 20260509121537 | 44 | 0 | 0.0 | 1.0 | 0.00 | 0.00 | 0.00 | 75 | 1013.8 |
| 20260509120038 | 42 | 0 | 0.0 | 1.0 | 0.00 | 0.00 | 0.00 | 85 | 1013.7 |
| 20260509114534 | 41 | 0 | 0.0 | 0.0 | 0.00 | 0.00 | 0.00 | 91 | 1013.7 |
| 20260509113032 | 38 | 0 | 0.0 | 0.0 | 0.00 | 0.00 | 0.00 | 91 | 1013.8 |
| 20260509111534 | 36 | 0 | 0.0 | 0.0 | 0.00 | 0.00 | 0.00 | 93 | 1013.8 |
| 20260509110035 | 35 | 0 | 0.0 | 2.0 | 0.00 | 0.00 | 0.00 | 95 | 1013.8 |
| 20260509104533 | 33 | 0 | 0.0 | 0.0 | 0.00 | 0.00 | 0.00 | 95 | 1013.8 |
| 20260509103034 | 32 | 0 | 0.0 | 0.0 | 0.00 | 0.00 | 0.00 | 95 | 1013.8 |
| 20260509101543 | 31 | 0 | 0.0 | 0.0 | 0.00 | 0.00 | 0.00 | 96 | 1013.7 |
| 20260509100032 | 29 | 0 | 0.0 | 0.0 | 0.00 | 0.00 | 0.00 | 95 | 1013.7 |
| 20260509094531 | 29 | 0 | 0.0 | 0.0 | 0.00 | 0.00 | 0.00 | 95 | 1013.3 |
| 20260509093035 | 28 | 0 | 0.0 | 0.0 | 0.00 | 0.00 | 0.00 | 94 | 1013.2 |
| 20260509091535 | 29 | 0 | 0.0 | 0.0 | 0.00 | 0.00 | 0.00 | 93 | 1013.0 |
| 20260509090037 | 29 | 0 | 0.0 | 0.0 | 0.00 | 0.00 | 0.00 | 94 | 1012.8 |
| 20260509084533 | 29 | 0 | 0.0 | 0.0 | 0.00 | 0.00 | 0.00 | 94 | 1012.7 |
| 20260509083030 | 29 | 0 | 0.0 | 0.0 | 0.00 | 0.00 | 0.00 | 94 | 1012.9 |
| 20260509081535 | 29 | 0 | 0.0 | 0.0 | 0.00 | 0.00 | 0.00 | 94 | 1012.8 |
| 20260509080037 | 29 | 0 | 0.0 | 0.0 | 0.00 | 0.00 | 0.00 | 94 | 1012.8 |
| 20260509074532 | 29 | 0 | 0.0 | 0.0 | 0.00 | 0.00 | 0.00 | 94 | 1012.8 |
| 20260509073102 | 29 | 0 | 0.0 | 0.0 | 0.00 | 0.00 | 0.00 | 93 | 1012.7 |
| 20260509071535 | 30 | 0 | 0.0 | 0.0 | 0.00 | 0.00 | 0.00 | 92 | 1013.0 |
| 20260509070034 | 30 | 0 | 0.0 | 0.0 | 0.00 | 0.00 | 0.00 | 92 | 1013.1 |
| 20260509064534 | 30 | 0 | 0.0 | 0.0 | 0.00 | 0.00 | 0.00 | 92 | 1013.1 |
| 20260509063032 | 30 | 0 | 0.0 | 0.0 | 0.00 | 0.00 | 0.00 | 92 | 1013.3 |
| 20260509061534 | 31 | 0 | 0.0 | 0.0 | 0.00 | 0.00 | 0.00 | 91 | 1013.3 |
| 20260509060045 | 31 | 0 | 0.0 | 0.0 | 0.00 | 0.00 | 0.00 | 90 | 1013.4 |
| 20260509054535 | 32 | 136 | 0.0 | 1.0 | 0.00 | 0.00 | 0.00 | 90 | 1013.4 |
| 20260509053035 | 31 | 0 | 0.0 | 0.0 | 0.00 | 0.00 | 0.00 | 90 | 1013.3 |
| 20260509051533 | 32 | 0 | 0.0 | 0.0 | 0.00 | 0.00 | 0.00 | 89 | 1013.3 |
| 20260509050031 | 32 | 0 | 0.0 | 0.0 | 0.00 | 0.00 | 0.00 | 88 | 1013.0 |
| 20260509044536 | 33 | 0 | 0.0 | 0.0 | 0.00 | 0.00 | 0.00 | 88 | 1013.0 |
| 20260509043036 | 33 | 0 | 0.0 | 1.0 | 0.00 | 0.00 | 0.00 | 88 | 1012.9 |
| 20260509041532 | 33 | 0 | 0.0 | 1.0 | 0.00 | 0.00 | 0.00 | 87 | 1012.9 |
| 20260509040029 | 34 | 0 | 0.0 | 1.0 | 0.00 | 0.00 | 0.00 | 87 | 1013.0 |
| 20260509034545 | 34 | 0 | 0.0 | 0.0 | 0.00 | 0.00 | 0.00 | 86 | 1012.8 |
| 20260509033031 | 35 | 0 | 0.0 | 1.0 | 0.00 | 0.00 | 0.00 | 85 | 1012.9 |
| 20260509031532 | 35 | 0 | 0.0 | 1.0 | 0.00 | 0.00 | 0.00 | 84 | 1012.6 |
| 20260509030030 | 36 | 0 | 0.0 | 1.0 | 0.00 | 0.00 | 0.00 | 82 | 1012.6 |
| 20260509024533 | 37 | 0 | 0.0 | 1.0 | 0.00 | 0.00 | 0.00 | 81 | 1012.5 |
| 20260509023032 | 38 | 0 | 0.0 | 0.0 | 0.00 | 0.00 | 0.00 | 80 | 1012.5 |
| 20260509021535 | 38 | 0 | 0.0 | 0.0 | 0.00 | 0.00 | 0.00 | 79 | 1012.4 |